Flag for Syria Weather past 2 weeks in Aleppo, Syria

Now
69 °F

Passing clouds.


Feels Like: 69 °F
Forecast: 50 / 64 °F
Wind: 10 mph from North

Location: Iskenderun

Current Time: Mar 29, 2015 at 2:26:18 PM

Latest Report: Mar 29, 2015 at 1:00 PM


Visibility: 9 mi

Pressure: 29.79 "Hg

Humidity: 56%

Dew point: 52 °F

Location of AleppoLocation

Historic Weather in Aleppo — Graph

°F

Aleppo temperature yesterday

Maximum temperature yesterday: 80 °F (at 11:00 AM)
Minimum temperature yesterday: 62 °F (at 11:00 PM)
Average temperature yesterday: 72 °F

Past Weeks' High & Low Weather Summary

 TemperatureHumidityPressure
High80 °F (Mar 28, 11:00 AM)90% (Mar 21, 3:00 AM)30.17 "Hg (Mar 21, 3:00 AM)
Low48 °F (Mar 22, 4:00 AM)16% (Mar 28, 11:00 AM)29.72 "Hg (Mar 28, 11:00 AM)
Average61 °F54%30.00 "Hg
* Reported Mar 14 12:00 Noon — Mar 29 1:00 PM, Aleppo, Weather by CustomWeather, © 2015

Note: Actual official high and low records may vary slightly from our data, if they occured in-between our weather recording intervals... More about our weather records

Advertising

Aleppo weather history for previous 24 hours

 ConditionsComfort  
Time TempWeatherWind HumidityBarometerVisibility
1:00 PM
Sun, Mar 29
69 °FPassing clouds.10 mph56%29.79 "Hg9 mi
12:00 PM68 °FPassing clouds.10 mph65%29.79 "Hg9 mi
11:00 AM67 °FPassing clouds.7 mph71%29.82 "Hg9 mi
10:00 AMN/APassing clouds.N/AN/AN/A1 mi
9:00 AM63 °FPassing clouds.5 mph76%29.84 "Hg9 mi
8:00 AM62 °FPassing clouds.No wind78%29.84 "Hg9 mi
7:00 AM61 °FSunny.6 mph80%29.85 "Hg9 mi
6:00 AM59 °FPassing clouds.No wind72%29.85 "Hg9 mi
5:00 AM60 °FPassing clouds.No wind71%29.86 "Hg9 mi
4:00 AM59 °FPassing clouds.No wind75%29.86 "Hg9 mi
3:00 AM61 °FPassing clouds.No wind70%29.87 "Hg9 mi
2:00 AM61 °FPassing clouds.2 mph69%29.89 "Hg9 mi
1:00 AM61 °FPassing clouds.1 mph73%29.90 "Hg9 mi
11:00 PM
Sat, Mar 28
62 °FPassing clouds.No wind78%29.93 "Hg9 mi
10:00 PM62 °FPassing clouds.6 mph80%29.92 "Hg9 mi
9:00 PM67 °FPassing clouds.1 mph58%29.90 "Hg9 mi
8:00 PM68 °FPassing clouds.1 mph51%29.86 "Hg9 mi
7:00 PM64 °FPassing clouds.6 mph66%29.81 "Hg9 mi
6:00 PM66 °FPassing clouds.1 mph55%29.84 "Hg9 mi
5:00 PM64 °FSprinkles. Overcast.3 mph68%29.88 "Hg6 mi
4:00 PM66 °FSprinkles. Overcast.16 mph61%29.90 "Hg6 mi
3:00 PM76 °FOvercast.8 mph21%29.82 "Hg9 mi
2:00 PM77 °FOvercast.13 mph17%29.77 "Hg9 mi
Weather by CustomWeather, © 2015

See weather overviewHow to use our weather pages